When you browse on this site, cookies collect data to enhance your experience and personalize the content and advertising you see.
Visit our Privacy Policy to learn more. By continuing to use the site, you agree to this use of cookies and data.
  • In Österreich
  • Länderverzeichnis
  • Für 7 Tage
  • Wassertemperatur
  • Satellitenkarten
  • Wetterkarte
  • News
  • Widgets
  • user-avatar
    Anmelden

    Stündliche Wetter Rechane

    Heute, 17 Februar, Sonntag

    Zeit Temperatur Niederschläge Wind Luftdruck Luftfeuchtigkeit
    00:00 -1°C° 0 mm 5 m/S 739 mmHg 80%
    01:00 -1°C° 0 mm 5 m/S 738 mmHg 80%
    02:00 -1°C° 0 mm 5 m/S 738 mmHg 81%
    03:00 -1°C° 0 mm 5 m/S 737 mmHg 83%
    04:00 -1°C° 0 mm 5 m/S 737 mmHg 86%
    05:00 -2°C° 0 mm 6 m/S 737 mmHg 88%
    06:00 -1°C° 0 mm 5 m/S 737 mmHg 89%
    07:00 -1°C° 0 mm 5 m/S 737 mmHg 89%
    08:00 -1°C° 0 mm 5 m/S 738 mmHg 89%
    09:00 -2°C° 0 mm 6 m/S 738 mmHg 87%
    10:00 -2°C° 0 mm 6 m/S 738 mmHg 84%
    11:00 -2°C° 0 mm 6 m/S 738 mmHg 81%
    12:00 -2°C° 0 mm 6 m/S 738 mmHg 79%
    13:00 -2°C° 0 mm 7 m/S 739 mmHg 77%
    14:00 -2°C° 0 mm 7 m/S 739 mmHg 76%
    15:00 -2°C° 0 mm 7 m/S 739 mmHg 75%
    16:00 -3°C° 0 mm 7 m/S 740 mmHg 75%
    17:00 -3°C° 0 mm 6 m/S 740 mmHg 75%
    18:00 -4°C° 0 mm 6 m/S 741 mmHg 75%
    19:00 -4°C° 0 mm 6 m/S 742 mmHg 75%
    20:00 -5°C° 0 mm 6 m/S 742 mmHg 74%
    21:00 -5°C° 0 mm 5 m/S 743 mmHg 76%
    22:00 -6°C° 0 mm 5 m/S 743 mmHg 77%
    23:00 -5°C° 0 mm 4 m/S 744 mmHg 79%

    Morgen, 18 Februar, Montag

    Zeit Temperatur Niederschläge Wind Luftdruck Luftfeuchtigkeit
    00:00 -7°C° 0 mm 4 m/S 745 mmHg 80%
    01:00 -7°C° 0 mm 4 m/S 745 mmHg 82%
    02:00 -6°C° 0 mm 3 m/S 746 mmHg 83%
    03:00 -6°C° 0 mm 3 m/S 746 mmHg 84%
    04:00 -7°C° 0 mm 3 m/S 747 mmHg 84%
    05:00 -7°C° 0 mm 3 m/S 747 mmHg 85%
    06:00 -7°C° 0 mm 3 m/S 748 mmHg 86%
    07:00 -7°C° 0 mm 3 m/S 748 mmHg 87%
    08:00 -8°C° 0 mm 3 m/S 749 mmHg 88%
    09:00 -7°C° 0 mm 3 m/S 749 mmHg 85%
    10:00 -6°C° 0 mm 3 m/S 750 mmHg 82%
    11:00 -5°C° 0 mm 2 m/S 750 mmHg 79%
    12:00 -4°C° 0 mm 2 m/S 750 mmHg 78%
    13:00 -4°C° 0 mm 2 m/S 750 mmHg 76%
    14:00 -1°C° 0 mm 1 m/S 751 mmHg 74%
    15:00 -2°C° 0 mm 1 m/S 751 mmHg 77%
    16:00 -3°C° 0 mm 1 m/S 751 mmHg 80%
    17:00 -5°C° 0 mm 0 m/S 751 mmHg 84%
    18:00 -5°C° 0 mm 0 m/S 751 mmHg 84%
    19:00 -4°C° 0 mm 1 m/S 751 mmHg 85%
    20:00 -6°C° 0 mm 1 m/S 751 mmHg 86%
    21:00 -6°C° 0 mm 1 m/S 751 mmHg 86%
    22:00 -7°C° 0 mm 2 m/S 751 mmHg 87%
    23:00 -7°C° 0 mm 2 m/S 751 mmHg 87%

    übermorgen, 19 Februar, Dienstag

    Zeit Temperatur Niederschläge Wind Luftdruck Luftfeuchtigkeit
    00:00 -6°C° 0 mm 2 m/S 750 mmHg 87%
    01:00 -7°C° 0 mm 3 m/S 750 mmHg 86%
    02:00 -7°C° 0 mm 3 m/S 750 mmHg 85%
    03:00 -7°C° 0 mm 3 m/S 750 mmHg 84%
    04:00 -8°C° 0 mm 4 m/S 749 mmHg 82%
    05:00 -8°C° 0 mm 4 m/S 748 mmHg 80%
    06:00 -8°C° 0 mm 4 m/S 748 mmHg 79%
    07:00 -7°C° 0 mm 4 m/S 748 mmHg 77%
    08:00 -7°C° 0 mm 4 m/S 747 mmHg 76%
    09:00 -6°C° 0 mm 5 m/S 747 mmHg 74%
    10:00 -5°C° 0 mm 5 m/S 746 mmHg 72%
    11:00 -4°C° 0 mm 5 m/S 746 mmHg 70%
    12:00 -2°C° 0 mm 5 m/S 745 mmHg 70%
    13:00 -2°C° 0 mm 5 m/S 745 mmHg 70%
    14:00 -1°C° 0 mm 5 m/S 744 mmHg 69%
    15:00 -2°C° 0 mm 5 m/S 743 mmHg 71%
    16:00 -2°C° 0 mm 5 m/S 743 mmHg 73%
    17:00 -4°C° 0 mm 5 m/S 742 mmHg 75%
    18:00 -4°C° 0 mm 5 m/S 742 mmHg 77%
    19:00 -4°C° 0 mm 5 m/S 741 mmHg 79%
    20:00 -4°C° 0 mm 5 m/S 741 mmHg 81%
    21:00 -4°C° 0 mm 5 m/S 740 mmHg 82%
    22:00 -4°C° 0 mm 5 m/S 740 mmHg 84%
    23:00 -4°C° 0 mm 5 m/S 739 mmHg 85%

    20 Februar, Mittwoch

    Zeit Temperatur Niederschläge Wind Luftdruck Luftfeuchtigkeit
    00:00 -2°C° 0 mm 5 m/S 739 mmHg 87%
    01:00 -1°C° 0 mm 5 m/S 738 mmHg 89%
    02:00 -1°C° 0 mm 5 m/S 738 mmHg 91%
    03:00 -1°C° 0.4 mm 5 m/S 737 mmHg 91%
    04:00 -1°C° 0.4 mm 5 m/S 737 mmHg 92%
    05:00 -1°C° 0.4 mm 5 m/S 736 mmHg 92%
    06:00 -1°C° 0.2 mm 4 m/S 736 mmHg 92%
    07:00 -1°C° 0.2 mm 4 m/S 736 mmHg 93%
    08:00 -1°C° 0.2 mm 4 m/S 736 mmHg 93%
    09:00 0°C° 0 mm 5 m/S 736 mmHg 91%
    10:00 0°C° 0 mm 5 m/S 735 mmHg 90%
    11:00 +1°C° 0 mm 5 m/S 735 mmHg 88%
    12:00 +1°C° 0.2 mm 5 m/S 735 mmHg 87%
    13:00 +1°C° 0.2 mm 5 m/S 734 mmHg 85%
    14:00 +1°C° 0.2 mm 5 m/S 734 mmHg 84%
    15:00 0°C° 0.5 mm 5 m/S 734 mmHg 84%
    16:00 0°C° 0.5 mm 5 m/S 734 mmHg 83%
    17:00 0°C° 0.5 mm 5 m/S 734 mmHg 83%
    18:00 0°C° 0.1 mm 5 m/S 734 mmHg 83%
    19:00 -1°C° 0.1 mm 5 m/S 735 mmHg 84%
    20:00 -1°C° 0.1 mm 4 m/S 735 mmHg 84%
    21:00 -1°C° 0.1 mm 5 m/S 735 mmHg 85%
    22:00 -1°C° 0.1 mm 5 m/S 735 mmHg 86%
    23:00 -1°C° 0.1 mm 5 m/S 735 mmHg 87%

    21 Februar, Donnerstag

    Zeit Temperatur Niederschläge Wind Luftdruck Luftfeuchtigkeit
    00:00 -1°C° 0.1 mm 5 m/S 735 mmHg 87%
    01:00 -1°C° 0.1 mm 5 m/S 736 mmHg 88%
    02:00 -1°C° 0.1 mm 5 m/S 736 mmHg 89%
    03:00 -2°C° 0.2 mm 5 m/S 736 mmHg 89%
    04:00 -2°C° 0.2 mm 5 m/S 736 mmHg 90%
    05:00 -2°C° 0.2 mm 5 m/S 736 mmHg 90%
    06:00 -4°C° 0.2 mm 5 m/S 737 mmHg 88%
    07:00 -4°C° 0.2 mm 5 m/S 737 mmHg 85%
    08:00 -5°C° 0.2 mm 5 m/S 738 mmHg 83%
    09:00 -5°C° 0.1 mm 5 m/S 738 mmHg 81%
    10:00 -5°C° 0.1 mm 6 m/S 739 mmHg 79%
    11:00 -6°C° 0.1 mm 6 m/S 740 mmHg 76%
    12:00 -6°C° 0.1 mm 6 m/S 741 mmHg 75%
    13:00 -6°C° 0.1 mm 6 m/S 741 mmHg 74%
    14:00 -8°C° 0.1 mm 6 m/S 742 mmHg 73%
    15:00 -8°C° 0 mm 5 m/S 743 mmHg 74%
    16:00 -8°C° 0 mm 5 m/S 743 mmHg 75%
    17:00 -10°C° 0 mm 5 m/S 744 mmHg 76%
    18:00 -10°C° 0 mm 4 m/S 745 mmHg 77%
    19:00 -11°C° 0 mm 4 m/S 746 mmHg 77%
    20:00 -11°C° 0 mm 4 m/S 746 mmHg 78%
    21:00 -11°C° 0 mm 4 m/S 747 mmHg 78%
    22:00 -12°C° 0 mm 3 m/S 748 mmHg 78%
    23:00 -12°C° 0 mm 3 m/S 748 mmHg 78%

    22 Februar, Freitag

    Zeit Temperatur Niederschläge Wind Luftdruck Luftfeuchtigkeit
    00:00 -13°C° 0 mm 3 m/S 749 mmHg 79%
    01:00 -13°C° 0 mm 3 m/S 749 mmHg 80%
    02:00 -13°C° 0 mm 3 m/S 750 mmHg 81%
    03:00 -13°C° 0 mm 3 m/S 751 mmHg 81%
    04:00 -14°C° 0 mm 3 m/S 751 mmHg 81%
    05:00 -14°C° 0 mm 3 m/S 752 mmHg 81%
    06:00 -14°C° 0 mm 3 m/S 752 mmHg 82%
    07:00 -14°C° 0 mm 3 m/S 753 mmHg 82%
    08:00 -14°C° 0 mm 3 m/S 754 mmHg 82%
    09:00 -12°C° 0 mm 4 m/S 754 mmHg 78%
    10:00 -11°C° 0 mm 4 m/S 755 mmHg 73%
    11:00 -10°C° 0 mm 4 m/S 755 mmHg 69%
    12:00 -10°C° 0 mm 4 m/S 756 mmHg 68%
    13:00 -9°C° 0 mm 4 m/S 756 mmHg 67%
    14:00 -9°C° 0 mm 4 m/S 756 mmHg 67%
    15:00 -9°C° 0 mm 4 m/S 757 mmHg 70%
    16:00 -9°C° 0 mm 3 m/S 757 mmHg 73%
    17:00 -10°C° 0 mm 3 m/S 757 mmHg 77%
    18:00 -10°C° 0 mm 3 m/S 758 mmHg 79%
    19:00 -10°C° 0 mm 3 m/S 758 mmHg 81%
    20:00 -12°C° 0 mm 3 m/S 758 mmHg 83%
    21:00 -12°C° 0 mm 3 m/S 759 mmHg 85%
    22:00 -12°C° 0 mm 3 m/S 759 mmHg 87%
    23:00 -12°C° 0 mm 3 m/S 759 mmHg 88%
    Mehr zeigen